Location: Burland Observatory
(39.4088°N, 105.4217°W)
Time: 23:54:57
(UTC-07:00)

Explorer 7 - Pass Details

Date: 10 December 2019
Orbit: 485 x 679 km, 50.3° (Epoch: 21 January)

Event Time Altitude Azimuth Distance (km) Brightness Sun altitude
Rises 19:13:45 0° 299° (WNW) 3,029 11.4 -29.2°
Reaches altitude 10° 19:16:34 10° 314° (NW) 2,112 10.2 -29.8°
Enters shadow 19:18:31 18° 334° (NNW) 1,621 9.3 -30.2°
